sat.trackr.live / text

‹ back to catalog

STARLINK-4346

NORAD 53073 · 2022-077AG

PAYLOAD ACTIVE UNKNOWN

§ Identity

Operator
Country
US
Launch date
2022-07-11
Launch site
AFWTR
Launch vehicle
Mass (kg)
RCS (m²)

Purposes: comms

External: N2YO · Heavens-Above · Gunter

§ Orbital elements

Epoch: 2026-05-25T01:56:30.490080Z

Period
94.61 min
Inclination
97.6370°
Eccentricity
0.0004511
Mean motion
15.22040537 rev/d
Perigee alt
496.6 km
Apogee alt
502.8 km
Semi-major
6,877.8 km
B*
3.7532e-4
RAAN
334.2680°
Arg perigee
329.9393°
Mean anomaly
30.1583°
Rev number
21,291

§ Raw data

STARLINK-43461 53073U 22077AG  26145.08090845  .00008512  00000+0  37532-3 0  99962 53073  97.6370 334.2680 0004511 329.9393  30.1583 15.22040537212911

JSON: /api/v1/satellites/53073 · /tle

For live sub-satellite position, see the globe view (requires WebGL).

§ Visibility from observer

Set your observer location to see the next 7 days of passes ≥ 10°. The values pass through the URL so the page stays shareable.

No JS? Fill the form by hand. The geolocation button needs JavaScript.